Other Public Products
Issued by NWS Grand Forks, ND

Home | Current Version | Previous Version | Graphics & Text | Print | Product List | Glossary On
Versions: 1 2 3 4 5 6 7 8 9 10 11 12 13 14 15 16 17 18 19 20 21 22 23 24 25 26 27 28 29 30 31 32 33 34 35 36 37 38 39 40 41 42 43 44 45 46 47 48 49 50
000
FPUS83 KFGF 260331
OPUFGF
PRAIRIE TO PINES WEATHER ROUNDUP
NATIONAL WEATHER SERVICE EASTERN NORTH DAKOTA/GRAND FORKS ND
1000 PM CDT FRI JUL 25 2014

 **SATELLITE DATA USED TO AUGMENT SKY COVER AT AUTOMATED STATIONS**
 *****  WEATHER ACROSS EASTERN NORTH DAKOTA  *****

CITY           SKY/WX    TMP DP  RH WIND       PRES   REMARKS
GRAND FORKS    CLEAR     65  59  81 W6        29.77R
GRAND FORKS AF CLEAR     65  60  82 W5        29.79R
GRAND CITY NWS   N/A     68 N/A N/A W2          N/A
BUXTON           N/A     66  64  91 W7          N/A
DEVILS LAKE    CLEAR     66  54  63 S5        29.78R
FARGO          CLEAR     70  58  65 W5        29.79R
WAHPETON ARPT  CLEAR     68  54  60 NW7       29.81R
$$

 *****  WEATHER ACROSS CENTRAL AND WESTERN NORTH DAKOTA  *****

CITY           SKY/WX    TMP DP  RH WIND       PRES   REMARKS
JAMESTOWN      CLEAR     66  58  75 CALM      29.81R
BISMARCK       CLEAR     65  53  65 SE7       29.80R
MINOT          CLEAR     67  56  67 SE6       29.76R
MINOT AFB      CLEAR     68  60  75 S6        29.75R
GARRISON         N/A     65  60  84 SE3       29.77R
WILLISTON      CLEAR     68  47  46 W9        29.75R
DICKINSON      CLEAR     63  55  75 S9        29.79R
HETTINGER      CLEAR     69  52  54 SE5       29.85R
$$

 *****  OTHER OBSERVATIONS NORTHEAST NORTH DAKOTA  *****

CITY           SKY/WX    TMP DP  RH WIND       PRES   REMARKS
WALHALLA         N/A     63  59  88 W3          N/A
LANGDON        FAIR      57  55  94 S8        29.78R
CAVALIER       FAIR      66  57  72 SW6       29.75S
GRAFTON        FAIR      61  57  88 SW5       29.76S
CANDO          FAIR      61  57  88 S8        29.79R
FORT TOTTEN      N/A     61  54  78 CALM      29.95S
ROLLA          FAIR      59  59 100 SW5       29.79R
RUGBY          FAIR      66  59  77 S6        29.78R
 ***** THE ABOVE OBSERVATIONS ARE NON NWS ARE NOT QUALITY
        CONTROLLED AND MAY MIS-REPORT RAIN FOR SNOW...
$$

 *****  OTHER OBSERVATIONS SOUTHEAST NORTH DAKOTA *****

CITY           SKY/WX    TMP DP  RH WIND       PRES   REMARKS
COOPERSTOWN    NOT AVBL
VALLEY CITY    FAIR      63  61  94 CALM      29.83R
OAKES          NOT AVBL
GWINNER          N/A     66  63  88 NW5       29.84R
BUFFALO        NOT AVBL
WYNDMERE       NOT AVBL
 ***** THE ABOVE OBSERVATIONS ARE NON NWS ARE NOT QUALITY
       CONTROLLED AND MAY MIS-REPORT RAIN FOR SNOW...
$$

  *****  WEATHER ACROSS NORTHERN MINNESOTA  *****

CITY           SKY/WX    TMP DP  RH WIND       PRES   REMARKS
FLAG ISLAND    CLEAR     72  59  64 W9        29.69S
WARROAD        CLEAR     66  57  72 SW6       29.74S
ROSEAU         CLEAR     66  57  72 SW3       29.75R
HALLOCK        CLEAR     64  57  77 SW5       29.75R
THF RVR FALLS  CLEAR     66  57  72 W7        29.79R
HALSTAD          N/A     64  55  75 W5          N/A
FOSSTON        CLEAR     59  54  82 CALM      29.80R
BAUDETTE       PTCLDY    69  62  78 VRB3      29.73R
WASKISH        MOCLDY    72  64  78 W10       29.75R
CROOKSTON      CLEAR     64  57  77 W7        29.79R
$$
  *****  WEATHER ACROSS CENTRAL AND WEST MINNESOTA  *****

CITY           SKY/WX    TMP DP  RH WIND       PRES   REMARKS
BEMIDJI        PTCLDY    69  65  86 W6        29.78R
PARK RAPIDS    CLEAR     68  66  93 W5        29.79R
WADENA         CLEAR     66  64  94 W3        29.80R
DETROIT LAKES  CLEAR     68  57  68 NW6       29.83R
MOORHEAD       CLEAR     68  61  77 CALM      29.81R
FERGUS FALLS   PTCLDY    70  66  88 NW5       29.80R
ELBOW LAKE     FAIR      68  67  96 W5        29.81R
MORRIS MN      CLEAR     68  66  94 W5        29.81R FOG
STAPLES        PTCLDY    70  66  88 CALM      29.79S
WHEATON        PTCLDY    68  66  94 SW3       29.82R
$$
  *****  WEATHER ELSEWHERE ACROSS MINNESOTA  *****

CITY           SKY/WX    TMP DP  RH WIND       PRES   REMARKS
DULUTH         CLOUDY    68  65  90 S6        29.79R
INTRNTL FALLS  PTCLDY    68  65  90 CALM      29.72F
ELY            PTCLDY    66  63  88 CALM      29.77S
CLOQUET        CLOUDY    70  66  88 CALM      29.79R
BRAINERD       CLOUDY    70  68  93 S3        29.79R
HIBBING        CLOUDY    69  65  86 CALM      29.77R
ALEXANDRIA     CLEAR     70  67  90 W3        29.82R
SAINT CLOUD    CLOUDY    76  71  85 CALM      29.78R
MINNEAPOLIS    CLOUDY    78  69  73 S3        29.78R
$$

  *****  WEATHER ACROSS SOUTH DAKOTA  *****

CITY           SKY/WX    TMP DP  RH WIND       PRES   REMARKS
SIOUX FALLS    MOCLDY    78  72  81 N8        29.82R
BROOKINGS      NOT AVBL
WATERTOWN      CLEAR     69  66  90 CALM      29.85R
HURON          CLEAR     69  66  90 E3        29.83R
SISSETON         N/A     72  70  93 SW6       29.81R
ABERDEEN       CLEAR     65  59  81 N3        29.84R
MITCHELL       PTCLDY    72  68  87 N6        29.83R
PIERRE         PTCLDY    73  55  53 N8        29.84R
MOBRIDGE       CLEAR     66  51  58 E7        29.82R
RAPID CITY     PTCLDY    69  56  62 E8        29.89R
$$

  *****  SOME WEATHER IN NEARBY STATES *****

CITY           SKY/WX    TMP DP  RH WIND       PRES   REMARKS
GLASGOW MT     CLEAR     66  47  50 NW14      29.82R
GREAT FALLS MT CLEAR     68  35  29 NW10      29.98R
CHEYENNE WY    MOCLDY    72  52  49 S13       30.12F
SCOTTSBLUFF NE MOCLDY    73  62  68 SE8       29.94F
OMAHA NE       MOCLDY    83  75  77 NE5       29.77R HX  90
DES MOINES IA  PTCLDY    78  72  81 E8        29.78R
DAVENPORT IA   CLOUDY    69  63  81 SE13      29.88S
CHICAGO IL     CLOUDY    71  57  61 SW7       29.93S
EAU CLAIRE WI  CLOUDY    72  65  78 S12G21    29.80S
LA CROSSE WI   CLOUDY    72  64  76 SE13      29.83R
$$

  *****  SOME NATIONAL WEATHER *****

CITY           SKY/WX    TMP DP  RH WIND       PRES   REMARKS
LA GUARDIA NY  PTCLDY    74  59  59 SW10      30.00F
RALEIGH NC     PTCLDY    73  67  81 SE5       30.04S
ATLANTA GA     PTCLDY    80  64  58 NW5       30.02R
NEW ORLEANS LA PTCLDY    81  75  82 SW10      30.02R
OKLAHOMA CITY  PTCLDY    85  62  46 S12       29.89R
ALBUQUERQUE NM PTCLDY    90  43  19 S7        30.08R
SALT LAKE CITY PTCLDY    84  41  21 W6        29.95R
LOS ANGELES CA PTCLDY    70  63  78 W7        29.89R
BOISE ID       CLEAR     80  22  11 NW7       29.97S
SEATTLE WA     PTCLDY    70  51  51 N9        30.10S
$$

*** WEATHER ACROSS MANITOBA...SASKATCHEWAN AND ONTARIO ***
                ***ONTARIO***

CITY           SKY/WX    TMP DP  RH WIND       PRES   REMARKS
GERALDTON      MOCLDY    66  59  77 SW6       29.74S
THUNDER BAY    PTCLDY    61  59  94 E3        29.75S
SIOUX LOOKOUT  MOCLDY    70  63  78 S3        29.71S
TORONTO        PTCLDY    66  55  68 SW12      29.96S
BIG TROUT LK   PTCLDY    55  50  82 NE6       29.80S
PICKLE LAKE    NOT AVBL
DRYDEN         LGT RAIN  70  66  88 S7        29.71R
KENORA         MOCLDY    66  63  88 W3        29.71S
$$
                *** MANITOBA***

CITY           SKY/WX    TMP DP  RH WIND       PRES   REMARKS
BRANDON        PTCLDY    66  57  72 SW3       29.72S
DAUPHIN        CLEAR     63  54  72 S7        29.67S
ISLAND LAKE    MOCLDY    68  52  56 E9        29.73R
PILOT MOUND      N/A     57  52  82 S7          N/A
THE PAS        SHOWER   N/A N/A N/A SE6         N/A
THOMPSON       PTCLDY    66  54  63 E15G21    29.79R
WINNIPEG       CLEAR     66  54  63 W8        29.71R
LYNN LAKE      CLEAR     68  52  56 E8        29.81R
CHURCHILL      CLOUDY    48  45  87 E14       30.01R
GILLAM         MOCLDY    52  48  87 NE10      29.90R
$$
                ***SASKATCHEWAN***

CITY           SKY/WX    TMP DP  RH WIND       PRES   REMARKS
ESTEVAN        PTCLDY    63  57  82 NW16      29.77R
KINDERSLEY     MOCLDY    57  50  77 NW17G24   29.71R
LLOYDMINSTER   LGT RAIN  55  54  94 SW6       29.74S
PRINCE ALBERT  LGT RAIN  59  55  88 NE10      29.58R
REGINA         MOCLDY    59  54  82 SW16G25   29.66F
YORKTON        LGT RAIN  61  57  88 NW2       29.68R



USA.gov is the U.S. government's official web portal to all federal, state and local government web resources and services.